• In Belarus
  • List of Countries
  • For 7 days
  • Water Temperature
  • Weather Map
  • Weather Widgets
  • user-avatar
    Login

    Hourly Weather Liverpool

    Today, 20 February, Thursday

    Time Temperature Precipitation Wind Pressure Humidity
    00:00 -9°C° 0 mm 7 mps 762 mmHg 70%
    01:00 -11°C° 0 mm 7 mps 763 mmHg 70%
    02:00 -11°C° 0 mm 7 mps 763 mmHg 74%
    03:00 -11°C° 0 mm 6 mps 763 mmHg 76%
    04:00 -11°C° 0 mm 6 mps 764 mmHg 78%
    05:00 -11°C° 0 mm 5 mps 764 mmHg 81%
    06:00 -12°C° 0.1 mm 5 mps 765 mmHg 76%
    07:00 -12°C° 0.1 mm 6 mps 765 mmHg 72%
    08:00 -12°C° 0 mm 6 mps 766 mmHg 70%
    09:00 -12°C° 0 mm 6 mps 766 mmHg 66%
    10:00 -11°C° 0 mm 6 mps 766 mmHg 62%
    11:00 -11°C° 0 mm 6 mps 767 mmHg 59%
    12:00 -11°C° 0 mm 6 mps 767 mmHg 55%
    13:00 -11°C° 0 mm 7 mps 767 mmHg 52%
    14:00 -11°C° 0 mm 7 mps 766 mmHg 49%
    15:00 -12°C° 0 mm 7 mps 766 mmHg 51%
    16:00 -11°C° 0 mm 6 mps 766 mmHg 52%
    17:00 -12°C° 0 mm 6 mps 766 mmHg 54%
    18:00 -12°C° 0 mm 5 mps 767 mmHg 58%
    19:00 -13°C° 0 mm 5 mps 767 mmHg 62%
    20:00 -12°C° 0 mm 4 mps 768 mmHg 66%
    21:00 -12°C° 0 mm 4 mps 768 mmHg 70%
    22:00 -12°C° 0 mm 4 mps 768 mmHg 74%
    23:00 -12°C° 0 mm 3 mps 768 mmHg 77%

    Tomorrow, 21 February, Friday

    Time Temperature Precipitation Wind Pressure Humidity
    00:00 -12°C° 0 mm 3 mps 768 mmHg 76%
    01:00 -12°C° 0 mm 3 mps 768 mmHg 75%
    02:00 -12°C° 0 mm 3 mps 768 mmHg 74%
    09:00 -14°C° 0 mm 4 mps 769 mmHg 64%
    10:00 -12°C° 0 mm 3 mps 769 mmHg 56%
    11:00 -9°C° 0 mm 3 mps 769 mmHg 47%
    12:00 -7°C° 0 mm 2 mps 768 mmHg 42%
    13:00 -6°C° 0 mm 2 mps 768 mmHg 38%
    14:00 -4°C° 0 mm 2 mps 767 mmHg 33%
    15:00 -5°C° 0 mm 2 mps 767 mmHg 36%
    16:00 -5°C° 0 mm 2 mps 767 mmHg 39%
    17:00 -6°C° 0 mm 2 mps 766 mmHg 42%
    18:00 -7°C° 0 mm 2 mps 767 mmHg 51%
    19:00 -8°C° 0 mm 2 mps 767 mmHg 59%
    20:00 -10°C° 0 mm 3 mps 767 mmHg 67%
    21:00 -10°C° 0 mm 3 mps 766 mmHg 67%
    22:00 -10°C° 0 mm 3 mps 766 mmHg 67%
    23:00 -12°C° 0 mm 3 mps 766 mmHg 67%

    Day after tomorrow, 22 February, Saturday

    Time Temperature Precipitation Wind Pressure Humidity
    00:00 -10°C° 0 mm 3 mps 765 mmHg 67%
    01:00 -11°C° 0 mm 4 mps 765 mmHg 66%
    02:00 -11°C° 0 mm 4 mps 764 mmHg 65%
    03:00 -11°C° 0 mm 5 mps 764 mmHg 67%
    04:00 -10°C° 0 mm 5 mps 763 mmHg 69%
    05:00 -10°C° 0 mm 6 mps 762 mmHg 70%
    06:00 -9°C° 0 mm 6 mps 762 mmHg 72%
    07:00 -8°C° 0 mm 7 mps 762 mmHg 74%
    08:00 -7°C° 0 mm 7 mps 762 mmHg 76%
    09:00 -5°C° 0 mm 8 mps 761 mmHg 71%
    10:00 -2°C° 0 mm 8 mps 761 mmHg 66%
    11:00 -1°C° 0 mm 8 mps 760 mmHg 61%
    12:00 -1°C° 0 mm 8 mps 760 mmHg 62%
    13:00 0°C° 0 mm 8 mps 759 mmHg 62%
    14:00 0°C° 0 mm 7 mps 759 mmHg 62%
    15:00 -1°C° 0 mm 6 mps 759 mmHg 63%
    16:00 -1°C° 0 mm 6 mps 759 mmHg 64%
    17:00 -1°C° 0 mm 5 mps 759 mmHg 65%
    18:00 -2°C° 0 mm 4 mps 759 mmHg 71%
    19:00 -3°C° 0 mm 4 mps 760 mmHg 77%
    20:00 -5°C° 0 mm 4 mps 761 mmHg 83%
    21:00 -5°C° 0 mm 4 mps 761 mmHg 85%
    22:00 -5°C° 0 mm 3 mps 761 mmHg 87%
    23:00 -5°C° 0 mm 3 mps 761 mmHg 89%

    23 February, Sunday

    Time Temperature Precipitation Wind Pressure Humidity
    00:00 -5°C° 0 mm 3 mps 761 mmHg 90%
    01:00 -5°C° 0 mm 3 mps 761 mmHg 91%
    02:00 -5°C° 0 mm 3 mps 761 mmHg 91%
    03:00 -5°C° 0 mm 3 mps 761 mmHg 91%
    04:00 -5°C° 0 mm 3 mps 761 mmHg 91%
    05:00 -5°C° 0 mm 3 mps 761 mmHg 91%
    06:00 -5°C° 0 mm 3 mps 761 mmHg 89%
    07:00 -4°C° 0 mm 3 mps 762 mmHg 87%
    08:00 -4°C° 0 mm 3 mps 762 mmHg 85%
    09:00 -2°C° 0 mm 4 mps 762 mmHg 78%
    10:00 0°C° 0 mm 4 mps 762 mmHg 71%
    11:00 +3°C° 0 mm 4 mps 762 mmHg 64%
    12:00 +3°C° 0 mm 5 mps 762 mmHg 63%
    13:00 +3°C° 0 mm 5 mps 762 mmHg 63%
    14:00 +4°C° 0 mm 6 mps 761 mmHg 62%
    15:00 +3°C° 0 mm 5 mps 761 mmHg 67%
    16:00 +2°C° 0 mm 5 mps 761 mmHg 71%
    17:00 +3°C° 0 mm 4 mps 762 mmHg 76%
    18:00 +1°C° 0 mm 3 mps 762 mmHg 82%
    19:00 0°C° 0 mm 3 mps 762 mmHg 88%
    20:00 -2°C° 0 mm 2 mps 763 mmHg 93%
    21:00 -2°C° 0 mm 2 mps 763 mmHg 94%
    22:00 -2°C° 0 mm 2 mps 763 mmHg 94%
    23:00 -2°C° 0 mm 2 mps 763 mmHg 95%

    24 February, Monday

    Time Temperature Precipitation Wind Pressure Humidity
    00:00 -2°C° 0 mm 2 mps 763 mmHg 95%
    01:00 0°C° 0 mm 1 mps 763 mmHg 95%
    02:00 0°C° 0 mm 1 mps 763 mmHg 95%
    03:00 0°C° 0 mm 1 mps 763 mmHg 95%
    04:00 -2°C° 0 mm 2 mps 763 mmHg 95%
    05:00 -2°C° 0 mm 2 mps 762 mmHg 95%
    06:00 -2°C° 0 mm 2 mps 762 mmHg 95%
    07:00 -1°C° 0 mm 2 mps 762 mmHg 95%
    08:00 -1°C° 0 mm 2 mps 762 mmHg 95%
    09:00 +1°C° 0 mm 3 mps 762 mmHg 86%
    10:00 +4°C° 0 mm 4 mps 762 mmHg 78%
    11:00 +6°C° 0 mm 5 mps 762 mmHg 70%
    12:00 +6°C° 0 mm 5 mps 762 mmHg 69%
    13:00 +7°C° 0 mm 6 mps 762 mmHg 68%
    14:00 +7°C° 0 mm 6 mps 762 mmHg 67%
    15:00 +6°C° 0 mm 5 mps 761 mmHg 72%
    16:00 +6°C° 0 mm 5 mps 761 mmHg 76%
    17:00 +5°C° 0 mm 4 mps 761 mmHg 81%
    18:00 +3°C° 0 mm 4 mps 762 mmHg 86%
    19:00 0°C° 0 mm 4 mps 762 mmHg 90%
    20:00 0°C° 0 mm 3 mps 762 mmHg 95%
    21:00 0°C° 0 mm 3 mps 762 mmHg 95%
    22:00 0°C° 0 mm 3 mps 762 mmHg 95%
    23:00 -1°C° 0 mm 3 mps 763 mmHg 95%

    25 February, Tuesday

    Time Temperature Precipitation Wind Pressure Humidity
    00:00 -1°C° 0 mm 3 mps 763 mmHg 95%
    01:00 -1°C° 0 mm 2 mps 763 mmHg 95%
    02:00 -1°C° 0 mm 2 mps 762 mmHg 94%
    03:00 -1°C° 0 mm 2 mps 762 mmHg 94%
    04:00 +1°C° 0 mm 1 mps 762 mmHg 94%
    05:00 0°C° 0 mm 0 mps 762 mmHg 94%
    06:00 +1°C° 0 mm 0 mps 762 mmHg 93%
    07:00 +1°C° 0 mm 0 mps 762 mmHg 91%
    08:00 +2°C° 0 mm 0 mps 762 mmHg 90%
    09:00 +4°C° 0 mm 1 mps 762 mmHg 87%
    10:00 +5°C° 0 mm 1 mps 762 mmHg 83%
    11:00 +5°C° 0 mm 2 mps 762 mmHg 80%
    12:00 +6°C° 0 mm 2 mps 762 mmHg 78%
    13:00 +7°C° 0 mm 2 mps 762 mmHg 76%
    14:00 +8°C° 0 mm 2 mps 762 mmHg 74%
    15:00 +7°C° 0 mm 2 mps 762 mmHg 78%
    16:00 +7°C° 0 mm 2 mps 762 mmHg 83%
    17:00 +6°C° 0 mm 2 mps 762 mmHg 87%
    18:00 +5°C° 0 mm 2 mps 762 mmHg 90%
    19:00 +4°C° 0 mm 2 mps 762 mmHg 92%
    20:00 +3°C° 0 mm 2 mps 762 mmHg 95%
    21:00 +2°C° 0.5 mm 3 mps 761 mmHg 96%
    22:00 +3°C° 0.5 mm 4 mps 761 mmHg 97%
    23:00 +3°C° 0.5 mm 4 mps 760 mmHg 98%
    Show more